Regional Weather Roundup
Issued by NWS Portland, ME

Home | Current Version | Previous Version | Text Only | Print | Product List | Glossary On
Versions: 1 2 3 4 5 6 7 8 9 10 11 12 13 14 15 16 17 18 19 20 21 22 23 24 25 26 27 28 29 30 31 32 33 34 35 36 37 38 39 40 41 42 43 44 45 46 47 48 49 50
000
ASUS41 KGYX 221910
RWRGYX
WEATHER ROUNDUP FOR MAINE AND NEW HAMPSHIRE
NATIONAL WEATHER SERVICE GRAY ME
300 PM EDT MON SEP 22 2014

MEZ002-005-006-010-012-015-018-020-021-024-026-027-029-222000-
MAINE

CITY           SKY/WX    TMP DP  RH WIND       PRES   REMARKS
PORTLAND       MOSUNNY   67  43  41 NW22G30   29.72R
SANFORD        MOSUNNY   64  43  45 W10G24    29.76R
BAR HARBOR     MOSUNNY   72  52  49 W14G23    29.60R
WISCASSET      SUNNY     67  45  45 NW10G23   29.70R
ROCKLAND       SUNNY     68  46  45 W18G28    29.64R
FRYEBURG       MOSUNNY   62  42  47 W10G18    29.76R
LEWISTONAUBURN SUNNY     64  43  45 NW16G31   29.72R
AUGUSTA        SUNNY     64  43  46 NW17G30   29.70R
WATERVILLE     PTSUNNY   63  45  51 W13G20    29.64R
BANGOR         MOSUNNY   66  44  45 W13G25    29.63R
GREENVILLE       N/A     53  41  63 VRB6      29.63R
MILLINOCKET    CLOUDY    60  44  55 W12G24    29.60R
HOULTON        CLOUDY    63  47  55 W10G24    29.50R
PRESQUE ISLE   CLOUDY    61  45  55 SW13G24   29.48R
FRENCHVILLE    CLOUDY    57  48  72 W16G31    29.44R
CARIBOU        CLOUDY    60  46  59 W15G29    29.46R
$$

NHZ002-005-008-009-011-012-014-222000-
NEW HAMPSHIRE

CITY           SKY/WX    TMP DP  RH WIND       PRES   REMARKS
PORTSMOUTH     MOSUNNY   69  45  41 W18G26    29.74R
ROCHESTER      PTSUNNY   66  44  45 NW10G23   29.76R
NASHUA         SUNNY     69  40  34 NW18G28   29.80R
MANCHESTER     MOSUNNY   68  39  34 W15G25    29.78R
CONCORD        MOSUNNY   67  40  37 W16G26    29.79R
LACONIA        MOSUNNY   63  43  48 W15G23    29.76F
PLYMOUTH       CLOUDY    60  48  63 W9        29.79R
BERLIN         CLOUDY    51  42  71 W9G22     29.79R
WHITEFIELD     CLOUDY    52  44  74 NW12      29.82R
JAFFREY        MOSUNNY   63  40  42 W13G21    29.84R
LEBANON        PTSUNNY   65  39  38 NW7G20    29.82R
MT WASHINGTON  FOG       30  30 100 W72         N/A  VSB 1/16WCI   9
$$

VTZ005-007-008-222000-
VERMONT

CITY           SKY/WX    TMP DP  RH WIND       PRES   REMARKS
ST JOHNSBURY     N/A     51  46  83 MISG      29.83R
MONTPELIER     MOSUNNY   56  41  57 NW16G30   29.87R
BURLINGTON     MOSUNNY   57  40  52 NW22G29   29.90R
$$

MAZ007-012-024-CTZ003-RIZ002-NYZ038-NYZ072-222000-
SOUTHERN NEW ENGLAND AND NY

CITY           SKY/WX    TMP DP  RH WIND       PRES   REMARKS
BOSTON         MOSUNNY   72  42  34 W16G32    29.77R
WORCESTER      PTSUNNY   62  44  51 W16G25    29.84R
NANTUCKET      SUNNY     71  58  63 SW20G29   29.81R HAZE
PROVIDENCE     MOSUNNY   72  44  36 W17G26    29.83R
HARTFORD       MOSUNNY   69  44  40 NW18G26   29.87R
ALBANY         PTSUNNY   59  41  51 NW24G37   29.95R
NEW YORK CITY  PTSUNNY   71  46  40 W17G26    29.91R
$$

ANZ081-ANZ082-ANZ150-NHZ014-MEZ023>029-222000-
COASTAL MARINE OBSERVATIONS

STATION/POSITION TIME  TEMP    WIND        PRES    WAVE
                       AIR SEA DIR/SP/G            HT/PER
                 (UTC) (F)     (DEG/KT/KT) (MB)    (FT/S)
MATINICUS ROCK   1900          270/ 24/ 26 1003.7R
PORTLAND WX BUOY 1850   63 59  280/ 19/ 27 1005.8R   7/12
WELLS            1800   66 59  330/ 12/ 22 1005.7R
ISLE OF SHOALS   1900   65     290/ 23/ 29 1006.4R
JEFFREYS LEDGE   1821      61                N/A     8/12
CASHES LEDGE BUO 1850   64 61              1004.8R  11/11
$$

.............KEY..............
   WCI - WIND CHILL
   TC  - TEMPERATURE IN CELSIUS
   VSB - VISIBILITY IN MILES
   HX  - HEAT INDEX
   FAIR- INDICATES FEW OR NO CLOUDS BELOW 12,000 FT, WITH NO
         SIGNIFICANT WEATHER AND/OR OBSTRUCTIONS TO VISIBILITY.





USA.gov is the U.S. government's official web portal to all federal, state and local government web resources and services.